Hourly Data Report for May 11, 2015

All times are specified in Local Standard Time (LST). Add 1 hour to adjust for Daylight Saving Time where and when it is observed.

CHARLOTTETOWN A
PRINCE EDWARD ISLAND

46°17'21.000" N
63°07'09.000" W
48.50 m
8300301
71706
YYG

Download Data

Hourly Data (May 2015)
Hourly Data Report for May 11, 2015
Temp Definition
°C
Dew Point Temp Definition
°C
Rel Hum Definition
%
Wind Dir Definition
10's deg

Wind Spd Definition
km/h
Visibility Definition
km
Stn Press Definition
kPa
Hmdx Definition


Wind Chill Definition


Weather Definition


TIME
00:00 Legend Double Dagger 5.6 5.3 98 2 26 8.1 101.10     Rain Showers,Fog
01:00 Legend Double Dagger 6.8 6.5 98 3 21 12.9 101.17     Drizzle
02:00 Legend Double Dagger 7.2 6.9 98 4 10 16.1 101.18     Drizzle
03:00 Legend Double Dagger 7.3 6.9 97 28 5 24.1 101.28     LegendNANA
04:00 Legend Double Dagger 7.0 6.7 98 25 7 24.1 101.31     LegendNANA
05:00 Legend Double Dagger 6.7 6.4 98 31 8 24.1 101.36     Mostly Cloudy
06:00 Legend Double Dagger 5.7 4.7 93 34 14 24.1 101.44     LegendNANA
07:00 Legend Double Dagger 5.8 3.7 86 36 18 24.1 101.54     LegendNANA
08:00 Legend Double Dagger 7.2 2.5 72 1 18 24.1 101.63     Mostly Cloudy
09:00 Legend Double Dagger 8.4 1.1 60 2 22 24.1 101.67     LegendNANA
10:00 Legend Double Dagger 8.7 -1.7 48 4 25 24.1 101.71     LegendNANA
11:00 Legend Double Dagger 9.5 -1.5 46 2 22 24.1 101.75     Mostly Cloudy
12:00 Legend Double Dagger 10.1 -1.6 44 34 16 24.1 101.77     LegendNANA
13:00 Legend Double Dagger 9.6 -2.7 42 3 19 24.1 101.76     LegendNANA
14:00 Legend Double Dagger 9.6 -2.0 44 34 14 24.1 101.75     Mostly Cloudy
15:00 Legend Double Dagger 9.9 -3.4 39 35 8 24.1 101.77     LegendNANA
16:00 Legend Double Dagger 8.4 -3.1 44 5 8 24.1 101.80     LegendNANA
17:00 Legend Double Dagger 8.5 -3.0 44 3 7 24.1 101.77     Cloudy
18:00 Legend Double Dagger 7.9 0.6 60 17 13 24.1 101.80     LegendNANA
19:00 Legend Double Dagger 6.6 -0.4 61 17 8 24.1 101.78     LegendNANA
20:00 Legend Double Dagger 6.3 -1.1 59 18 9 24.1 101.73     Mostly Cloudy
21:00 Legend Double Dagger 6.2 -0.5 62 18 13 24.1 101.73     LegendNANA
22:00 Legend Double Dagger 5.9 -1.7 58 16 15 24.1 101.72     LegendNANA
23:00 Legend Double Dagger 5.9 -1.5 59 17 14 24.1 101.63     Cloudy

Notes on Data Quality.

Legend

  • E = Estimated
  • M = Missing
  • NA = Not Available
  • ‡ = Partner data that is not subject to review by the National Climate Archives
Date modified: